Weather in Platanias

Greece     35°31′01″N   23°54′24″E
temp.,
°C
wind,
m/s
gust,
m/s
humid.,
%
clouds,
%
prec.,
mm/h
press.,
hPa
HPBL,
m
21 january, fri
fri2123:00+9ssw457710 0.0 1025155
02:00+9wsw3488100 1.6 1024234
05:00+9s238924 3.0 1023166
08:00+9ssw34847 3.1 1022136
11:00+13sw346711 0.0 1023785
14:00+13wsw6763100 0.3 10201112
17:00+11sw467986 0.7 1020521
20:00+9ssw4582100 0.9 1020206
22 january, sat
sat2223:00+10sw5781100 0.1 1019375
02:00+9sw4682100 0.3 1018356
05:00+9sw588154 0.1 1016495
08:00+9sw58837 0.9 1016491
11:00+12w7107480 0.9 10161329
14:00+9nw5791100 3.0 1015744
17:00+8wnw588324 1.6 1016830
20:00+7nnw678794 3.2 1018668
23 january, sun
sun2323:00+6nne4579100 1.8 1020855
02:00+5sse127343 1.9 1020277
05:00+5sw236655 0.0 1019388
08:00+4n4490100 0.8 1020609
11:00+5n6872100 2.3 10231225
14:00+6n785996 2.8 10222173
17:00+4n687795 0.9 10231054
20:00+4n247393 1.9 1024778
24 january, mon
mon2423:00+3ssw226844 0.1 1024583
02:00+3s32621 0.1 1023257
05:00+4wsw1261100 0.0 1022558
08:00+3e127396 0.1 1021339
11:00+3nne2393100 2.8 1022462
14:00+4n2390100 4.2 1021498
17:00+4n4581100 1.9 1022712
20:00+3nw358299 3.9 1023712
25 january, tue
tue2523:00+4n468285 1.6 1023650
02:00+3nne237995 3.1 1023527
05:00+3nne6789100 3.3 1024782
08:00+3nne81180100 9.9 10251436
11:00+3nne7977100 3.4 10271402
14:00+4n81067100 6.6 10261714
17:00+3n91171100 1.1 10261347
20:00+3n81177100 4.5 10271412